Location: North Evanston
(42.0634°N, 87.6976°W)
Time: 20:42:41
(UTC+00:00)

Vanguard 3 - Pass Details

Date: 19 May 2026
Orbit: 507 x 3205 km, 33.4° (Epoch: 31 May)

Event Time Altitude Azimuth Distance (km) Brightness Sun altitude
Rises 21:50:54 0° 271° (W) 6,932 12.9 34.6°
Reaches altitude 10° 21:55:27 10° 268° (W) 6,048 13.1 33.8°
Maximum altitude 22:14:23 58° 197° (SSW) 3,353 10.8 30.2°
Drops below altitude 10° 22:29:22 10° 123° (ESE) 4,906 10.7 27.5°
Sets 22:32:38 0° 119° (ESE) 5,607 10.9 26.9°
